Other Public Products
Issued by NWS Grand Forks, ND

Home | Current Version | Previous Version | Graphics & Text | Print | Product List | Glossary On
Versions: 1 2 3 4 5 6 7 8 9 10 11 12 13 14 15 16 17 18 19 20 21 22 23 24 25 26 27 28 29 30 31 32 33 34 35 36 37 38 39 40 41 42 43 44 45 46 47 48 49 50
146
FPUS83 KFGF 260331
OPUFGF
PRAIRIE TO PINES WEATHER ROUNDUP
NATIONAL WEATHER SERVICE EASTERN NORTH DAKOTA/GRAND FORKS ND
1000 PM CDT WED APR 25 2018

 **SATELLITE DATA USED TO AUGMENT SKY COVER AT AUTOMATED STATIONS**
 *****  WEATHER ACROSS EASTERN NORTH DAKOTA  *****

CITY           SKY/WX    TMP DP  RH WIND       PRES   REMARKS
GRAND FORKS    MOCLDY    49  41  74 S13       29.75F
GRND FORKS AFB FAIR      54  36  49 S9        29.75F
GRND FORKS NWS   N/A     51  41  69 S12       29.73F
BUXTON           N/A     51  44  77 S9          N/A
DEVILS LAKE    FAIR      51  31  46 SW8       29.76R
FARGO          FAIR      55  37  50 S15       29.83F
WAHPETON ARPT  FAIR      46  36  66 S12       29.89F
$$

 *****  WEATHER ACROSS CENTRAL AND WESTERN NORTH DAKOTA  *****

CITY           SKY/WX    TMP DP  RH WIND       PRES   REMARKS
JAMESTOWN      FAIR      53  32  44 S13       29.78F
BISMARCK       FAIR      57  30  35 SW5       29.80S
MINOT          FAIR      55  35  47 NW17      29.86R
MINOT AFB      FAIR      54  36  51 N15       29.85R
GARRISON         N/A     54  35  48 N18G24    29.84R
WILLISTON      FAIR      56  31  38 N15       29.97R
DICKINSON      FAIR      53  31  42 NW14      29.89R
HETTINGER      FAIR      50  34  54 NW9       29.90R
$$

 *****  OTHER OBSERVATIONS NORTHEAST NORTH DAKOTA  *****

CITY           SKY/WX    TMP DP  RH WIND       PRES   REMARKS
WALHALLA       FAIR      54  36  50 N18       29.81R
LANGDON        FAIR      50  34  53 N22       29.81R
CAVALIER         N/A     54  36  50 N17       29.76R
GRAFTON        FAIR      50  37  62 S12       29.74F
CANDO          FAIR      52  36  54 N15G22    29.83R
FORT TOTTEN      N/A     56  29  36 S2        29.95S
ROLLA          MOCLDY    48  32  53 N17G25    29.87R
RUGBY          FAIR      54  34  47 N21G32    29.82R
 ***** THE ABOVE OBSERVATIONS ARE NON NWS ARE NOT QUALITY
        CONTROLLED AND MAY MIS-REPORT RAIN FOR SNOW...
$$

 *****  OTHER OBSERVATIONS SOUTHEAST NORTH DAKOTA *****

CITY           SKY/WX    TMP DP  RH WIND       PRES   REMARKS
COOPERSTOWN    FAIR      48  37  66 S12       29.77F
VALLEY CITY    FAIR      50  37  62 S14       29.80F
OAKES            N/A     52  36  54 S18       29.83F
GWINNER          N/A     50  37  62 S15       29.84F
SHEYENNE NWR     N/A     51  35  55 S8        29.95S
BUFFALO          N/A     52  30  43 SW14        N/A
WYNDMERE       NOT AVBL
 ***** THE ABOVE OBSERVATIONS ARE NON NWS ARE NOT QUALITY
       CONTROLLED AND MAY MIS-REPORT RAIN FOR SNOW...
$$

  *****  WEATHER ACROSS NORTHERN MINNESOTA  *****

CITY           SKY/WX    TMP DP  RH WIND       PRES   REMARKS
FLAG ISLAND    FAIR      37  32  81 S8        29.73F
WARROAD        FAIR      52  37  58 S7        29.76S
ROSEAU         FAIR      50  37  62 S12       29.75F
HALLOCK        FAIR      54  37  54 S13       29.73S
THF RVR FALLS  FAIR      52  36  54 S15       29.80F
HALSTAD        NOT AVBL
FOSSTON        FAIR      45  32  61 S13       29.83F
BAUDETTE       FAIR      50  34  54 S9        29.79F
WASKISH        FAIR      50  30  46 S8        29.82F
CROOKSTON      FAIR      52  37  58 S14       29.79F
$$
  *****  WEATHER ACROSS CENTRAL AND WEST MINNESOTA  *****

CITY           SKY/WX    TMP DP  RH WIND       PRES   REMARKS
BEMIDJI        FAIR      46  29  50 S7        29.86F
PARK RAPIDS    FAIR      47  30  51 S10       29.89S
WADENA         FAIR      43  30  61 S6        29.90F
DETROIT LAKES  FAIR      46  34  61 S5        29.88F
MOORHEAD       FAIR      54  36  50 S15       29.85F
FERGUS FALLS   FAIR      48  36  61 S10       29.88S
ELBOW LAKE     FAIR      44  38  79 S9        29.92S
MORRIS MN      FAIR      45  37  76 S7        29.92F
STAPLES        FAIR      43  28  56 S7        29.92F
WHEATON        FAIR      48  36  61 S9        29.92S
$$
  *****  WEATHER ELSEWHERE ACROSS MINNESOTA  *****

CITY           SKY/WX    TMP DP  RH WIND       PRES   REMARKS
DULUTH         FAIR      49  20  31 SW8       29.93S
INTRNTL FALLS  FAIR      48  27  44 S6        29.83F
ELY            FAIR      48  23  37 SW5       29.89F
CLOQUET        FAIR      46   9  21 SW3       29.93F
BRAINERD       FAIR      47  26  44 S8        29.93F
HIBBING        FAIR      46  24  42 VRB5      29.90S
ALEXANDRIA     FAIR      50  33  52 S10       29.94F
SAINT CLOUD    FAIR      46  32  58 S5        29.96F
MINNEAPOLIS    CLOUDY    53  32  44 W6        30.00S
$$

  *****  WEATHER ACROSS SOUTH DAKOTA  *****

CITY           SKY/WX    TMP DP  RH WIND       PRES   REMARKS
SIOUX FALLS    CLOUDY    50  30  46 SW5       29.98F
BROOKINGS      FAIR      48  35  60 S8        29.97S
WATERTOWN      FAIR      44  35  70 S9        29.93S
HURON          FAIR      51  36  56 S10       29.92F
SISSETON         N/A     49  37  63 SE10      29.88F
ABERDEEN       FAIR      48  36  63 S8        29.89S
MITCHELL       FAIR      50  39  66 S8        29.96S
PIERRE         FAIR      53  31  42 SE9       29.86R
MOBRIDGE       FAIR      52  35  52 SE8       29.81S
RAPID CITY     FAIR      58  30  34 N23       29.91R
$$

  *****  SOME WEATHER IN NEARBY STATES *****

CITY           SKY/WX    TMP DP  RH WIND       PRES   REMARKS
GLASGOW MT     CLOUDY    55  31  39 N12       30.06R
GREAT FALLS MT FAIR      39  33  79 S10       30.22R
CHEYENNE WY    FAIR      52  21  29 SW12      30.04S
SCOTTSBLUFF NE FAIR      50  35  56 E7        29.93R
OMAHA NE       FAIR      50  36  58 CALM      30.03R
DES MOINES IA  FAIR      57  28  33 NE5       30.01S
DAVENPORT IA   FAIR      51  28  41 NE6       30.01S
CHICAGO IL     FAIR      41  28  60 NE3       30.03F
EAU CLAIRE WI  FAIR      43  26  51 CALM      29.98F
LA CROSSE WI   FAIR      48  35  60 CALM      29.99F
$$

  *****  SOME NATIONAL WEATHER *****

CITY           SKY/WX    TMP DP  RH WIND       PRES   REMARKS
LA GUARDIA NY  FOG       54  52  93 E5        29.64F VSB 3/4
RALEIGH NC     FAIR      56  56 100 CALM      29.82R
ATLANTA GA     FAIR      59  50  72 NW8       29.92S
NEW ORLEANS LA FAIR      72  63  73 SW7       29.95S
OKLAHOMA CITY  CLOUDY    51  42  71 N10       30.11S
ALBUQUERQUE NM FAIR      69  29  22 SW8       30.11R
SALT LAKE CITY MOCLDY    68  27  21 CALM      30.07S
LOS ANGELES CA FAIR      58  52  80 SW12      30.03R
BOISE ID       FAIR      67  32  27 W5        30.07R
SEATTLE WA     MOCLDY    67  42  40 N10       30.04F
$$

*** WEATHER ACROSS MANITOBA...SASKATCHEWAN AND ONTARIO ***
                ***ONTARIO***

CITY           SKY/WX    TMP DP  RH WIND       PRES   REMARKS
GERALDTON      CLOUDY    37  23  56 SW8       29.84F
THUNDER BAY    MOCLDY    34  28  80 VRB2      29.90F
SIOUX LOOKOUT  MOCLDY    46  28  49 S5        29.75F
TORONTO        MOCLDY    39  36  87 NW18G24   29.79F
BIG TROUT LK   CLOUDY    41  32  70 N12G17    29.71R
PICKLE LAKE    NOT AVBL
DRYDEN         MOCLDY    50  30  46 SW12      29.76F
KENORA         MOCLDY    48  32  53 S10       29.74F
$$
                *** MANITOBA***

CITY           SKY/WX    TMP DP  RH WIND       PRES   REMARKS
BRANDON        MOCLDY    50  32  50 N13       29.90R
DAUPHIN        CLEAR     39  28  65 NW5       29.94R
ISLAND LAKE    CLOUDY    34  30  86 N15G22    29.87R WCI  24
PILOT MOUND      N/A     50  30  46 N20G31      N/A
THE PAS        PTCLDY    39  27  60 N8        30.00R
THOMPSON       NOT AVBL
WINNIPEG       MOCLDY    50  32  50 N17G25    29.81R
LYNN LAKE      CLEAR     28  23  80 NE3       30.02R
CHURCHILL      FLURRIES  10   7  85 N14       30.10R WCI  -5
GILLAM         FLURRIES  19  14  79 N15G22    30.03R WCI   5
$$
                ***SASKATCHEWAN***

CITY           SKY/WX    TMP DP  RH WIND       PRES   REMARKS
ESTEVAN        PTCLDY    48  30  49 N13G20    29.98R
KINDERSLEY     PTCLDY    48  30  49 NW9       30.10R
LLOYDMINSTER   MOCLDY    43  25  49 W8        30.05S
PRINCE ALBERT  PTCLDY    43  25  49 NW2       30.04R
REGINA         PTCLDY    48  27  43 N10       30.04R
YORKTON        CLEAR     43  27  52 NW9       29.97R



USA.gov is the U.S. government's official web portal to all federal, state and local government web resources and services.